Location: Chapet
(48.9667°N, 1.9333°E)
Time: 15:29:19
(UTC+00:00)

Daily predictions for brighter satellites

Satellite Brightness Start Highest point End
(mag) Time Altitude Azimuth Time Altitude Azimuth Time Altitude Azimuth
Cosmos 2227 Rocket 2.9 20:13:45 10° NW 20:19:17 55° WSW 20:24:47 10° S
Cosmos 921 Rocket 3.3 20:16:09 10° NNW 20:20:38 58° ENE 20:25:03 10° SSE
Landsat 7 4.4 20:16:31 10° S 20:21:10 59° W 20:25:51 10° NNW
PSLV R/B 3.9 20:18:07 10° NNE 20:22:11 84° ESE 20:26:13 10° SSW
Cosmos 1980 Rocket 2.4 20:24:21 10° S 20:29:44 48° ESE 20:35:11 10° NE
Cosmos 1869 Rocket 4.3 20:25:55 10° N 20:30:10 39° ENE 20:34:22 10° SE
CARTOSAT-1 3.8 20:26:53 10° SSE 20:31:06 58° ENE 20:35:21 10° N
Cosmos 2228 Rocket 4.1 20:29:44 10° SSE 20:33:42 30° E 20:37:40 10° NNE
Cosmos 1464 Rocket 4.0 20:28:33 10° S 20:34:43 74° E 20:40:52 10° NNE
ARGOS Delta rocket 4.2 20:30:25 10° NNE 20:35:58 86° ESE 20:41:23 10° SSW
Cosmos 2344 3.5 20:30:22 10° SSW 20:37:42 60° ESE 20:45:14 10° NE
ISS -3.7 20:34:32 10° WNW 20:37:55 84° NNE 20:41:15 10° ESE
Cosmos 2322 Rocket 4.0 20:37:03 10° ESE 20:38:57 12° E 20:40:51 10° ENE
Cosmos 2369 3.7 20:33:48 10° SSW 20:39:21 65° ESE 20:44:59 10° NNE
Cosmos 773 Rocket 4.1 20:35:03 10° NNW 20:40:16 67° ENE 20:45:19 11° SSE
Cosmos 1354 Rocket 4.2 20:35:12 10° S 20:40:18 52° ESE 20:45:27 10° NNE
Spot 2 Rocket 4.0 20:35:52 10° SE 20:40:40 47° ENE 20:45:31 10° N
Cosmos 1536 3.4 20:36:45 10° NNW 20:40:44 60° W 20:44:41 10° S
SPOT 3 Rocket 3.6 20:36:41 10° SSE 20:41:49 74° ENE 20:46:58 10° NNW
ATLAS 2AS CENTAUR R/B 3.2 20:35:06 10° S 20:42:28 48° ESE 20:49:38 10° NE
Okean 1 3.6 20:41:03 10° SSE 20:44:54 48° E 20:48:48 10° NNE
Cosmos 1486 Rocket 4.3 20:40:28 10° SSW 20:45:46 76° WNW 20:51:05 10° NNE
H-2A R/B 3.1 20:41:51 10° N 20:45:46 45° WNW 20:49:41 10° SW
Cosmos 1092 Rocket 4.4 20:40:26 10° N 20:46:26 49° ENE 20:52:05 11° SSE
Meteor 1-19 Rocket 4.3 20:41:45 10° S 20:47:00 53° E 20:52:16 10° NNE
NOSS 3-4 (A) 3.7 20:41:21 10° SW 20:47:05 72° NW 20:53:23 10° NE
NOSS 3-4 (C) 3.7 20:41:23 10° SW 20:47:09 72° NW 20:53:27 10° NE
Nadezhda 4 Rocket 4.0 20:41:05 10° N 20:47:22 81° E 20:53:31 10° SSE
RESURS DK-1 2.9 20:44:45 10° S 20:48:32 36° ESE 20:52:20 10° NE
SL-4 R/B 3.6 20:44:42 10° W 20:48:33 27° SW 20:52:10 10° SSE
Cosmos 1697 Rocket 3.1 20:42:54 10° SW 20:48:34 70° WNW 20:54:14 10° NNE
Meteor 2-14 Rocket 4.5 20:44:12 10° N 20:50:18 74° E 20:56:23 10° SSE
USA 267 4.4 20:49:09 10° ENE 20:55:18 45° N 21:01:26 10° WNW
Cosmos 2297 Rocket 4.4 20:51:33 10° NW 20:55:35 20° W 20:59:36 10° SW
ATLAS CENTAUR R/B 3.9 20:52:03 10° NNW 20:55:39 20° NNE 20:59:13 10° ENE
ARIANE 5 R/B 3.6 20:53:39 12° SE 20:57:15 35° ENE 21:01:21 10° N
Cosmos 44 Rocket 3.5 20:52:44 10° NW 20:57:25 62° NE 21:01:28 14° SE
MetOp-B 4.4 20:53:23 10° S 20:58:43 68° WSW 21:04:05 10° NNW
Cosmos 1184 Rocket 3.7 21:01:20 10° SSW 21:04:14 44° WNW 21:07:10 10° N
Cosmos 158 Rocket 4.1 21:00:01 10° NNW 21:05:07 65° ENE 21:09:24 15° SE
ATLAS 3B R/B 3.2 20:59:07 10° NW 21:06:22 62° NE 21:13:24 12° ESE
Meteor 2-9 Rocket 4.3 21:00:50 10° NNW 21:06:40 86° W 21:12:06 11° S
NOSS 2-1 (E) 4.3 21:08:10 18° SE 21:08:39 18° ESE 21:10:58 10° ENE
Cosmos 1975 3.1 21:06:37 10° N 21:10:38 55° ENE 21:13:33 17° SSE
Cosmos 2026 Rocket 4.1 21:05:38 10° N 21:11:46 64° ENE 21:17:00 15° SSE
Cosmos 389 Rocket 4.3 21:08:55 10° NW 21:11:56 27° W 21:14:57 10° SSW
Cosmos 1503 Rocket 4.3 21:09:48 10° SSW 21:15:04 72° WNW 21:20:26 10° NNE
CZ-4B R/B 3.8 21:13:48 10° NNW 21:16:23 23° WNW 21:18:55 10° WSW
ERS-1 Rocket 3.0 21:12:32 15° SSE 21:16:47 81° ENE 21:21:51 10° NNW
SL-16 R/B 3.0 21:13:28 14° SSE 21:17:38 33° ESE 21:22:38 10° NE
CZ-4C R/B 4.3 21:11:57 10° NW 21:17:41 31° NNE 21:24:26 10° E
Meteor 1-4 Rocket 4.2 21:15:10 10° NNE 21:17:49 20° ENE 21:19:36 14° ESE
BREEZE-M (TANK) 4.4 21:13:22 10° W 21:17:55 89° N 21:38:43 10° E
Cosmos 1538 Rocket 4.2 21:15:16 10° NNW 21:20:30 63° ENE 21:24:18 18° SE
Helios 1A Rocket 3.2 21:19:01 14° S 21:22:24 62° WSW 21:26:24 10° NNW
CZ-2C R/B 3.9 21:18:49 10° NNE 21:23:34 63° ESE 21:27:47 13° S
Cosmos 1733 Rocket 3.5 21:20:33 10° N 21:24:54 49° ENE 21:27:44 20° SE
OE (NEXTSAT) 4.4 21:26:50 10° WSW 21:30:01 46° S 21:32:08 19° ESE
Geosat 4.5 21:28:35 17° SE 21:32:19 53° NE 21:37:13 10° NNW
SJ 16-02 1.7 21:28:00 10° SSW 21:32:20 65° WNW 21:36:43 10° NNE
Meteor 1-18 Rocket 4.2 21:27:07 10° S 21:32:49 84° E 21:38:28 10° NNE
Cosmos 2292 Rocket 2.9 21:33:36 10° NNW 21:36:37 60° W 21:38:15 23° S
Cosmos 2278 3.7 21:32:24 10° SSW 21:38:04 85° WNW 21:43:48 10° NNE
Cosmos 1862 Rocket 4.0 21:37:31 22° SSE 21:40:04 47° E 21:44:24 10° NNE
BREEZE M DEB (TANK) 4.3 21:37:42 10° W 21:42:07 53° SSW 21:55:47 14° SE
Cosmos 2360 Rocket 3.4 21:40:43 20° SE 21:42:50 25° ESE 21:47:19 10° NE
Cosmos 1726 4.1 21:41:02 10° NNE 21:43:38 18° ENE 21:45:09 14° E
Cosmos 2263 Rocket 2.8 21:39:50 10° NW 21:45:11 48° WSW 21:49:11 17° S
Meteor 2-15 4.4 21:41:00 16° S 21:45:56 72° E 21:52:01 10° NNE
NOSS 2-1 (C) 2.8 21:46:44 19° SSW 21:48:53 55° SE 21:52:03 10° NE
SPOT 5 3.7 21:45:43 14° S 21:50:04 49° W 21:55:03 10° NNW
Terra 2.1 21:47:57 19° S 21:51:16 64° WSW 21:56:01 10° NNW
Cosmos 1441 Rocket 3.5 21:51:03 30° SSE 21:52:28 45° E 21:56:02 10° NNE
Resurs 01 Rocket 4.3 21:51:02 10° WSW 21:52:44 12° W 21:54:27 10° WNW
Cosmos 1346 Rocket 2.7 21:50:23 20° S 21:53:06 90° NW 21:57:09 10° NNE
SAR-Lupe-1 4.1 21:49:38 10° NNE 21:53:13 61° ESE 21:54:46 30° S
Cosmos 2279 Rocket 4.0 21:53:29 19° S 21:57:58 70° E 22:04:11 10° NNE
NOSS 2-1 (D) 2.6 21:56:58 17° SSW 21:59:19 72° SE 22:02:34 10° NE
Cosmos 1680 Rocket 4.1 21:55:05 10° NNW 22:00:14 48° ENE 22:03:26 22° SE
Cosmos 990 Rocket 4.3 21:57:54 24° SSE 22:00:42 47° ESE 22:05:44 10° NNE
USA 215 4.0 21:55:15 10° ENE 22:00:52 30° SE 22:03:42 22° SSE
Iridium 2 3.6 21:59:04 10° N 22:02:50 77° E 22:04:23 34° SSE
Cosmos 1818 4.0 22:02:58 10° NNW 22:08:23 56° NE 22:12:08 19° ESE
Cosmos 1066 Rocket 4.3 22:05:06 24° S 22:08:35 62° E 22:14:10 10° NNE
Iridium 4 Rocket 4.0 22:07:16 10° N 22:11:36 41° E 22:13:44 27° SE
SL-24 R/B - RUBIN 2 4.5 22:09:34 10° NW 22:13:38 37° WSW 22:15:31 25° SSW
Cosmos 1980 Rocket 3.8 22:08:48 10° WSW 22:13:55 35° NW 22:19:07 10° NNE
Cosmos 1898 Rocket 4.0 22:11:50 28° SSE 22:14:05 42° ESE 22:19:05 10° NE
ISS -2.3 22:11:38 10° W 22:14:21 24° SW 22:14:21 24° SW
Okean 1-7 3.5 22:17:26 32° SE 22:18:54 44° E 22:23:04 10° NNE
Iridium 51 4.1 22:21:01 44° SE 22:21:50 59° E 22:25:21 10° N
Cosmos 2322 Rocket 2.1 22:18:02 20° SSW 22:21:57 72° ESE 22:27:34 10° NNE
Cosmos 1844 Rocket 2.6 22:19:21 10° NNW 22:24:59 83° ENE 22:27:57 29° SSE
Cosmos 2180 Rocket 4.4 22:21:19 24° S 22:25:16 84° E 22:31:27 10° N
Okean 3 4.1 22:25:02 32° SE 22:26:11 39° E 22:30:10 10° NNE
RESURS DK-1 4.4 22:22:59 10° WSW 22:26:36 29° NW 22:30:13 10° NNE
Cosmos 2333 Rocket 3.1 22:25:18 26° SE 22:26:59 31° ESE 22:31:52 10° NE
Cosmos 1805 3.3 22:23:11 10° NNW 22:27:05 72° W 22:28:28 38° S
Cosmos 1461 4.4 22:27:08 10° NNW 22:30:50 31° NE 22:33:54 14° E
H-2A R/B 4.5 22:28:01 10° NE 22:31:38 29° E 22:32:20 28° ESE
BREEZE-M DEB (TANK) 3.0 22:29:09 10° W 22:31:39 34° SSW 22:31:52 34° SSW
ATLAS 2AS CENTAUR R/B 3.6 22:25:48 10° WSW 22:33:26 57° NW 22:40:48 10° NE
ARIANE 5 R/B 4.1 22:31:11 18° SW 22:33:44 30° W 22:37:42 10° NNW
ATLAS CENTAUR R/B 2.0 22:30:29 10° NW 22:35:22 65° NE 22:37:50 27° ESE
USA 267 3.6 22:31:19 10° ESE 22:37:47 65° NNE 22:44:15 10° NW
Cosmos 1733 3.7 22:36:30 10° NNW 22:40:11 49° W 22:41:23 34° SW
Cosmos 1766 3.2 22:38:18 10° N 22:42:15 88° ENE 22:43:23 46° S
Cosmos 2219 Rocket 3.0 22:44:47 28° SE 22:46:18 33° ESE 22:51:14 10° NE
Cosmos 1844 3.7 22:42:52 10° NNW 22:48:43 80° WSW 22:51:27 33° SSE
Cosmos 1703 Rocket 3.5 22:48:15 39° S 22:49:53 85° E 22:54:21 10° N
Meteor 1-4 Rocket 3.8 22:49:37 10° NNW 22:52:42 29° W 22:53:35 26° WSW
Cosmos 372 Rocket 4.4 22:51:17 35° SSE 22:52:52 46° ESE 22:57:49 10° NNE
ATLAS 3B R/B 3.5 22:50:08 10° NW 22:56:58 42° WSW 23:00:39 26° SSW
NOSS 2-1 (E) 4.4 22:55:47 10° WSW 22:58:44 34° NW 23:01:52 10° NNE
NOSS 3-1 (A) 4.4 22:53:34 10° NW 23:00:41 62° NE 23:08:57 11° ESE
Cosmos 1655 Rocket 4.1 22:54:44 10° NNW 23:00:57 69° W 23:04:10 30° S
Cosmos 1707 3.7 23:00:36 31° ESE 23:01:07 33° E 23:04:36 10° NNE
SL-16 R/B 3.1 22:56:05 10° SW 23:01:34 48° NW 23:07:04 10° NNE
Cosmos 1782 Rocket 3.5 22:59:08 10° N 23:03:31 83° W 23:04:50 45° S
ERS-2 2.5 23:03:07 10° NNE 23:06:37 45° E 23:06:52 44° ESE
SWARM C 4.4 23:06:26 67° SE 23:06:43 73° E 23:10:07 10° N
CZ-4C R/B 3.1 23:00:20 10° NW 23:07:22 72° NE 23:14:17 16° SE
NOSS 3-1 (C) 4.0 23:00:45 10° NW 23:08:06 89° SW 23:14:02 23° SE
USA 290 4.3 23:10:46 17° E 23:10:46 17° E 23:12:20 10° ENE
Cosmos 1238 Rocket 4.2 23:09:25 10° NNE 23:11:38 19° ENE 23:11:57 18° E
SJ 16-02 4.4 23:10:38 10° WNW 23:11:49 11° NW 23:13:00 10° NNW
SWARM A 4.1 23:12:49 73° SSE 23:13:06 84° E 23:16:30 10° N
Gblst 52 Del rocket 4.2 23:07:47 10° WSW 23:14:15 77° SSE 23:19:59 10° ENE
Cosmos 2237 Rocket 4.0 23:14:56 15° ESE 23:16:21 16° E 23:19:40 10° ENE
Cosmos 1470 2.6 23:14:25 10° N 23:18:19 89° E 23:19:01 58° S
Cosmos 1726 3.0 23:15:22 10° NNW 23:18:47 37° W 23:19:26 34° WSW
COSMOS 2428 3.2 23:17:53 33° SSE 23:19:37 42° ESE 23:24:56 10° NE
Cosmos 1300 Rocket 3.5 23:15:17 10° N 23:19:39 79° E 23:20:51 47° SSE
Cosmos 2151 Rocket 4.4 23:18:14 10° N 23:22:25 40° ENE 23:23:57 30° ESE
Cosmos 2242 Rocket 4.0 23:21:24 35° SW 23:23:10 60° WNW 23:27:41 10° N
ALOS 2 2.6 23:22:00 46° S 23:23:14 76° WSW 23:27:39 10° NNW
Cosmos 1937 Rocket 3.6 23:22:47 29° SW 23:25:29 72° WNW 23:30:48 10° NNE
Cosmos 1242 Rocket 2.9 23:22:02 10° N 23:25:33 51° ENE 23:26:07 46° ESE
Cosmos 2360 Rocket 2.6 23:22:25 19° SW 23:26:23 62° WNW 23:32:01 10° NNE
Okean 2 Rocket 3.6 23:22:07 10° N 23:26:33 51° ENE 23:28:05 35° SE
Cosmos 405 Rocket 4.3 23:28:20 22° E 23:28:44 22° E 23:31:43 10° NE
In-Cosmos 22 4.4 23:29:31 36° SSE 23:31:38 60° E 23:37:01 10° NNE
Cosmos 2333 4.1 23:29:02 31° SSW 23:31:52 87° WNW 23:37:33 10° NNE
Cosmos 1437 Rocket 4.3 23:29:07 10° N 23:32:20 26° ENE 23:33:33 21° E
Cosmos 1908 4.0 23:30:20 10° N 23:33:57 41° ENE 23:34:48 35° ESE
Cosmos 1867 3.8 23:33:44 39° SSE 23:35:18 51° ESE 23:40:36 10° NE
Meteor 1-21 4.3 23:34:35 36° S 23:37:00 71° E 23:42:48 10° NNE
Cosmos 1626 2.8 23:37:36 39° ESE 23:37:55 40° E 23:41:23 10° NNE
Cosmos 1842 4.0 23:38:57 35° WSW 23:40:00 45° WNW 23:43:45 10° N
Cosmos 1953 3.6 23:39:46 10° N 23:43:24 32° ENE 23:44:46 25° ESE
USA 215 3.2 23:37:52 10° ENE 23:44:27 86° SE 23:51:00 10° SW
Cosmos 2278 Rocket 2.7 23:39:31 10° NNW 23:45:08 56° ENE 23:48:51 21° SE
Cosmos 1674 2.6 23:50:45 61° SSE 23:51:14 71° E 23:54:59 10° NNE
Sich 1 Rocket 3.6 23:48:29 10° NNW 23:52:52 71° W 23:54:00 48° SSW
